Regional Weather Roundup
Issued by NWS

Home | Current Version | Previous Version | Graphics & Text | Print | Product List | Glossary Off
Versions: 1 2 3 4 5 6 7 8 9 10 11 12 13 14 15 16 17 18 19 20 21 22 23 24 25 26 27 28 29 30 31 32 33 34 35 36 37 38 39 40 41 42 43 44 45 46 47 48 49 50

000
ASUS43 KMKX 301921
RWRWI

WISCONSIN REGIONAL WEATHER ROUNDUP
NATIONAL WEATHER SERVICE MILWAUKEE/SULLIVAN WI
200 PM CDT TUE AUG 30 2016

NOTE: "FAIR" INDICATES FEW OR NO CLOUDS BELOW 12,000 FEET WITH NO
SIGNIFICANT WEATHER AND/OR OBSTRUCTIONS TO VISIBILITY.

WIZ001-002-006>008-014>016-023>028-302000-
NORTHWEST WISCONSIN

CITY           SKY/WX    TMP DP  RH WIND       PRES   REMARKS
SUPERIOR ARPT  SUNNY     76  56  51 W7        30.16S
ASHLAND        SUNNY     76  58  53 N8        30.15F
HAYWARD        MOSUNNY   75  54  47 VRB5      30.17F
SIREN          CLOUDY    74  51  42 NW6       30.18F
CUMBERLAND     MOSUNNY   72  57  60 N5        30.18S
RICE LAKE      MOSUNNY   74  60  60 NW5       30.18S
CHETEK         NOT AVBL
LADYSMITH      CLOUDY    75  63  65 W5        30.17F
EAU CLAIRE     MOSUNNY   79  65  62 N6        30.14S HX  81
MENOMONIE      MOSUNNY   77  62  59 NW7       30.15F
NEW RICHMOND   CLOUDY    76  62  60 NW5       30.19S
OSCEOLA        CLOUDY    74  61  62 NW5       30.21S
$$

WIZ003>005-009-010-017-018-302000-
NORTH CENTRAL WISCONSIN

CITY           SKY/WX    TMP DP  RH WIND       PRES   REMARKS
MANITOWISH WTR NOT AVBL
ARBOR VITAE    MOSUNNY   76  61  59 NW7       30.15F
WOODRUFF       MOSUNNY   76  61  59 NW7       30.15F
RHINELANDER    MOSUNNY   75  64  68 VRB3      30.15F
EAGLE RIVER    CLOUDY    73  60  65 W5        30.14F
LAND O LAKES   CLOUDY    75  59  58 CALM      30.15S
PHILLIPS       PTSUNNY   73  59  59 NW5       30.14F
TOMAHAWK       MOSUNNY   75  60  58 N3        30.14F
MEDFORD        MOSUNNY   76  65  66 NW6       30.14F
MERRILL        MOSUNNY   78  64  63 N9        30.12F HX  80
$$

WIZ029-030-035-036-043>047-302000-
CENTRAL WISCONSIN

CITY           SKY/WX    TMP DP  RH WIND       PRES   REMARKS
WAUSAU         MOSUNNY   81  63  54 NW6       30.09F HX  82
MOSINEE        MOSUNNY   81  66  61 NW8       30.12F HX  83
MARSHFIELD     MOSUNNY   82  65  56 W10       30.12F HX  84
STEVENS POINT  PTSUNNY   80  62  54 CALM      30.11F HX  81
WAUPACA        MOSUNNY   87  60  41 W8        30.09F HX  86
WAUTOMA        MOSUNNY   84  62  47 W8        30.10F HX  85
WISC RAPIDS    CLOUDY    83  63  50 SW9       30.12F HX  84
CAMP DOUGLAS   PTSUNNY   82  66  57 NW9       30.11F HX  85
$$

WIZ011>013-019>022-031-037>040-048>050-302000-
NORTHEAST WISCONSIN

CITY           SKY/WX    TMP DP  RH WIND       PRES   REMARKS
ANTIGO         PTSUNNY   77  66  68 N8        30.12S
SHAWANO        MOSUNNY   87  62  42 NW6       30.07F HX  87
OCONTO         NOT AVBL
STURGEON BAY   MOSUNNY   82  63  52 W7        30.07F HX  83
GREEN BAY      MOSUNNY   83  73  72 S8        30.07F HX  89
MANITOWOC      MOSUNNY   78  71  79 SE8       30.08S HX  80
APPLETON       MOSUNNY   84  54  34 VRB5      30.08F HX  83
CLINTONVILLE   MOSUNNY   84  59  42 W8        30.06F HX  84
OSHKOSH        PTSUNNY   82  64  54 W6        30.08F HX  83
$$

WIZ032>034-041-042-053>061-302000-
SOUTHWEST WISCONSIN

CITY           SKY/WX    TMP DP  RH WIND       PRES   REMARKS
LA CROSSE      MOSUNNY   82  64  54 NW6       30.12F HX  83
SPARTA         MOSUNNY   81  63  54 W6        30.13F HX  82
VIROQUA        PTSUNNY   81  65  59 NW5       30.15F HX  83
BOSCOBEL       PTSUNNY   86  71  60 W7        30.11F HX  91
PRAIRIE DU CHI MOSUNNY   80  69  67 NW8       30.11F HX  83
PLATTEVILLE    MOSUNNY   82  75  79 NW5       30.13F HX  87
$$

WIZ056-057-062-063-064-067-068-302000-
SOUTH CENTRAL WISCONSIN

CITY           SKY/WX    TMP DP  RH WIND       PRES   REMARKS
REEDSBURG      NOT AVBL
BARABOO/DELLS  MOSUNNY   82  65  55 NW8       30.11F HX  84
LONE ROCK      MOSUNNY   82  71  69 NW7       30.11F HX  86
MINERAL POINT  CLOUDY    81  72  74 NW5       30.12F HX  84
MADISON        PTSUNNY   83  68  60 N7        30.10S HX  86
MIDDLETON      MOSUNNY   84  70  63 NW6       30.11F HX  88
WATERTOWN      CLOUDY    77  72  84 SW6       30.09F
MONROE         PTSUNNY   81  68  65 E12G17    30.11S HX  83
JANESVILLE     MOSUNNY   82  72  69 NW13      30.11S HX  87
$$

WIZ051-052-058>065-066-070>072-302000-
SOUTHEAST WISCONSIN

CITY           SKY/WX    TMP DP  RH WIND       PRES   REMARKS
MILWAUKEE      TSTM      71  68  90 VRB3G21   30.13R VSB 1/4
WAUKESHA       CLOUDY    72  66  83 W7        30.12R
MILWAUKEE/TIMM RAIN      73  64  73 N10       30.11R
RACINE         LGT RAIN  72  68  87 S8        30.11S FOG
BURLINGTON     MOSUNNY   82  69  64 W7        30.09F HX  85
KENOSHA        PTSUNNY   84  71  65 W7        30.09F HX  89
FOND DU LAC    MOSUNNY   84  65  52 NW6       30.09S HX  86
SHEBOYGAN      MOSUNNY   81  70  69 SE7       30.08F HX  84
WEST BEND      MOSUNNY   79  70  73 SE9       30.08F HX  81
JUNEAU         MOSUNNY   82  64  55 NW7       30.10F HX  83
$$

LSZ147-162-302000-
LAKE SUPERIOR

STATION/POSITION TIME  TEMP    WIND        PRES    WAVE
                       AIR SEA DIR/SP/G            HT/PER
                 (UTC) (F)     (DEG/KT/KT) (MB)    (FT/S)
W MID LAKE BUOY  1850   67 69  260/  6/  8 1020.1F   1/ 3
DEVILS ISLAND    1900   68     220/  5/  6 1021.0F
PORT WING        1800   68     290/  4/  4 1021.7F
SAXON HARBOR     1840   69     350/  5/  6 1021.3S
$$

LMZ867-665-643>646-302000-
LAKE MICHIGAN

STATION/POSITION TIME  TEMP    WIND        PRES    WAVE
                       AIR SEA DIR/SP/G            HT/PER
                 (UTC) (F)     (DEG/KT/KT) (MB)    (FT/S)
CHAMBERS ISLAND  1800   82     210/  4/  6 1017.6F
S GREEN BAY BUOY 1900   75 74  190/  4/  4 1017.4
N MID LAKE BUOY  1850   72 72  270/  2/  4 1017.1F   1/ 3
NORTHPORT PIER   1800   79     300/  3/  6 1017.9F
SISTER BAY       1807   92     270/  5/  5   N/A
ALGOMA LAKESHORE 1815          100/  5/  6   N/A
KEWAUNEE LAKESHO 1800   69     170/  7/  8 1018.2F
SHEBOYGAN LAKESH 1900   73     170/  8/  9 1017.9F
PORT WASHINGTON  1820   71      60/  2/ 14 1019.6F
ATWATER BUOY     1900   67     240/  6/  6   N/A
MILWAUKEE LAKESH 1810   74     350/ 10/ 14   N/A
S MID LAKE BUOY  1850   74 76  190/  8/  8 1018.5F   1/ 4
KENOSHA   LAKESH 1900   73     170/ 11/ 13 1018.3F
$$

TC  - TEMPERATURE IN CELSIUS
VSB - VISIBILITY IN STATUTE MILES
WCI - WIND CHILL INDEX
HX  - HEAT INDEX





USA.gov is the U.S. government's official web portal to all federal, state and local government web resources and services.